When you browse on this site, cookies collect data to enhance your experience and personalize the content and advertising you see.
Visit our Privacy Policy to learn more. By continuing to use the site, you agree to this use of cookies and data.
  • In Austria
  • List of Countries
  • For 7 days
  • Water Temperature
  • Satellite Maps
  • Weather Map
  • News
  • Weather Widgets
  • user-avatar
    Login

    Hourly Weather Beja

    Today, 21 May, Tuesday

    Time Temperature Precipitation Wind Pressure Humidity
    00:00 +13°C° 0 mm 2 mps 741 mmHg 87%
    01:00 +12°C° 0 mm 2 mps 740 mmHg 90%
    02:00 +12°C° 0 mm 2 mps 740 mmHg 93%
    03:00 +12°C° 0 mm 2 mps 740 mmHg 94%
    04:00 +12°C° 0 mm 2 mps 740 mmHg 94%
    05:00 +12°C° 0 mm 2 mps 740 mmHg 95%
    06:00 +15°C° 0 mm 2 mps 741 mmHg 85%
    07:00 +17°C° 0 mm 2 mps 741 mmHg 76%
    08:00 +19°C° 0 mm 3 mps 741 mmHg 66%
    09:00 +21°C° 0 mm 3 mps 741 mmHg 59%
    10:00 +24°C° 0 mm 3 mps 741 mmHg 52%
    11:00 +25°C° 0 mm 3 mps 741 mmHg 46%
    12:00 +25°C° 0 mm 3 mps 741 mmHg 44%
    13:00 +26°C° 0 mm 3 mps 741 mmHg 43%
    14:00 +26°C° 0 mm 3 mps 740 mmHg 42%
    15:00 +25°C° 0 mm 4 mps 740 mmHg 44%
    16:00 +25°C° 0 mm 4 mps 740 mmHg 45%
    17:00 +25°C° 0 mm 5 mps 740 mmHg 47%
    18:00 +21°C° 0 mm 5 mps 741 mmHg 54%
    19:00 +19°C° 0 mm 4 mps 741 mmHg 62%
    20:00 +17°C° 0 mm 4 mps 741 mmHg 69%
    21:00 +16°C° 0 mm 3 mps 741 mmHg 74%
    22:00 +14°C° 0 mm 3 mps 741 mmHg 78%
    23:00 +14°C° 0 mm 2 mps 741 mmHg 82%

    Tomorrow, 22 May, Wednesday

    Time Temperature Precipitation Wind Pressure Humidity
    00:00 +14°C° 0 mm 2 mps 741 mmHg 85%
    01:00 +14°C° 0 mm 2 mps 741 mmHg 87%
    02:00 +13°C° 0 mm 1 mps 741 mmHg 90%
    03:00 +13°C° 0 mm 1 mps 741 mmHg 89%
    04:00 +13°C° 0 mm 1 mps 741 mmHg 89%
    05:00 +13°C° 0 mm 1 mps 741 mmHg 88%
    06:00 +16°C° 0 mm 1 mps 741 mmHg 77%
    07:00 +20°C° 0 mm 1 mps 742 mmHg 65%
    08:00 +23°C° 0 mm 1 mps 742 mmHg 54%
    09:00 +25°C° 0 mm 1 mps 742 mmHg 47%
    10:00 +27°C° 0 mm 1 mps 742 mmHg 40%
    11:00 +30°C° 0 mm 1 mps 742 mmHg 33%
    12:00 +30°C° 0 mm 1 mps 742 mmHg 31%
    13:00 +31°C° 0 mm 2 mps 742 mmHg 29%
    14:00 +31°C° 0 mm 2 mps 742 mmHg 26%
    15:00 +30°C° 0 mm 3 mps 742 mmHg 28%
    16:00 +29°C° 0 mm 4 mps 742 mmHg 30%
    17:00 +29°C° 0 mm 5 mps 741 mmHg 32%
    18:00 +26°C° 0 mm 5 mps 742 mmHg 40%
    19:00 +23°C° 0 mm 5 mps 742 mmHg 47%
    20:00 +20°C° 0 mm 4 mps 743 mmHg 55%
    21:00 +19°C° 0 mm 4 mps 743 mmHg 59%
    22:00 +18°C° 0 mm 3 mps 743 mmHg 62%
    23:00 +17°C° 0 mm 2 mps 743 mmHg 66%

    Day after tomorrow, 23 May, Thursday

    Time Temperature Precipitation Wind Pressure Humidity
    00:00 +16°C° 0 mm 2 mps 742 mmHg 68%
    01:00 +15°C° 0 mm 2 mps 742 mmHg 70%
    02:00 +14°C° 0 mm 2 mps 742 mmHg 72%
    03:00 +14°C° 0 mm 2 mps 742 mmHg 73%
    04:00 +14°C° 0 mm 2 mps 742 mmHg 74%
    05:00 +13°C° 0 mm 3 mps 742 mmHg 75%
    06:00 +16°C° 0 mm 3 mps 743 mmHg 65%
    07:00 +19°C° 0 mm 3 mps 743 mmHg 54%
    08:00 +22°C° 0 mm 4 mps 743 mmHg 44%
    09:00 +25°C° 0 mm 4 mps 743 mmHg 38%
    10:00 +27°C° 0 mm 4 mps 743 mmHg 32%
    11:00 +29°C° 0 mm 4 mps 744 mmHg 26%
    12:00 +30°C° 0 mm 4 mps 743 mmHg 24%
    13:00 +32°C° 0 mm 4 mps 743 mmHg 21%
    14:00 +33°C° 0 mm 4 mps 742 mmHg 18%
    15:00 +32°C° 0 mm 5 mps 742 mmHg 22%
    16:00 +30°C° 0 mm 5 mps 742 mmHg 26%
    17:00 +29°C° 0 mm 6 mps 742 mmHg 30%
    18:00 +27°C° 0 mm 6 mps 742 mmHg 39%
    19:00 +23°C° 0 mm 6 mps 743 mmHg 48%
    20:00 +20°C° 0 mm 6 mps 743 mmHg 58%
    21:00 +19°C° 0 mm 5 mps 743 mmHg 58%
    22:00 +16°C° 0 mm 5 mps 743 mmHg 58%
    23:00 +15°C° 0 mm 4 mps 743 mmHg 58%

    24 May, Friday

    Time Temperature Precipitation Wind Pressure Humidity
    00:00 +14°C° 0 mm 3 mps 742 mmHg 60%
    01:00 +13°C° 0 mm 3 mps 742 mmHg 62%
    02:00 +12°C° 0 mm 3 mps 742 mmHg 64%
    03:00 +13°C° 0 mm 3 mps 742 mmHg 66%
    04:00 +13°C° 0 mm 3 mps 741 mmHg 69%
    05:00 +13°C° 0 mm 3 mps 741 mmHg 71%
    06:00 +16°C° 0 mm 3 mps 742 mmHg 63%
    07:00 +19°C° 0 mm 4 mps 742 mmHg 55%
    08:00 +22°C° 0 mm 4 mps 742 mmHg 47%
    09:00 +26°C° 0 mm 5 mps 742 mmHg 41%
    10:00 +28°C° 0 mm 5 mps 742 mmHg 36%
    11:00 +30°C° 0 mm 5 mps 742 mmHg 30%
    12:00 +32°C° 0 mm 5 mps 741 mmHg 28%
    13:00 +33°C° 0 mm 5 mps 741 mmHg 25%
    14:00 +34°C° 0 mm 5 mps 741 mmHg 23%
    15:00 +34°C° 0 mm 5 mps 741 mmHg 23%
    16:00 +33°C° 0 mm 5 mps 740 mmHg 23%
    17:00 +33°C° 0 mm 5 mps 740 mmHg 24%
    18:00 +30°C° 0 mm 5 mps 741 mmHg 25%
    19:00 +28°C° 0 mm 4 mps 741 mmHg 27%
    20:00 +26°C° 0 mm 4 mps 741 mmHg 29%
    21:00 +25°C° 0 mm 4 mps 741 mmHg 30%
    22:00 +23°C° 0 mm 4 mps 742 mmHg 30%
    23:00 +22°C° 0 mm 4 mps 742 mmHg 30%

    25 May, Saturday

    Time Temperature Precipitation Wind Pressure Humidity
    00:00 +22°C° 0 mm 4 mps 742 mmHg 31%
    01:00 +21°C° 0 mm 4 mps 741 mmHg 31%
    02:00 +21°C° 0 mm 4 mps 741 mmHg 31%
    03:00 +20°C° 0 mm 4 mps 741 mmHg 32%
    04:00 +20°C° 0 mm 4 mps 742 mmHg 33%
    05:00 +20°C° 0 mm 4 mps 742 mmHg 34%
    06:00 +22°C° 0 mm 4 mps 742 mmHg 31%
    07:00 +26°C° 0 mm 4 mps 743 mmHg 27%
    08:00 +28°C° 0 mm 5 mps 743 mmHg 24%
    09:00 +30°C° 0 mm 5 mps 743 mmHg 22%
    10:00 +33°C° 0 mm 5 mps 743 mmHg 20%
    11:00 +34°C° 0 mm 5 mps 743 mmHg 19%
    12:00 +35°C° 0 mm 5 mps 743 mmHg 18%
    13:00 +36°C° 0 mm 5 mps 742 mmHg 18%
    14:00 +36°C° 0 mm 5 mps 742 mmHg 17%
    15:00 +36°C° 0 mm 5 mps 742 mmHg 18%
    16:00 +35°C° 0 mm 5 mps 741 mmHg 19%
    17:00 +35°C° 0 mm 5 mps 741 mmHg 20%
    18:00 +33°C° 0 mm 4 mps 742 mmHg 23%
    19:00 +29°C° 0 mm 3 mps 742 mmHg 27%
    20:00 +27°C° 0 mm 3 mps 742 mmHg 31%
    21:00 +26°C° 0 mm 3 mps 742 mmHg 34%
    22:00 +25°C° 0 mm 3 mps 742 mmHg 38%
    23:00 +24°C° 0 mm 3 mps 742 mmHg 42%

    26 May, Sunday

    Time Temperature Precipitation Wind Pressure Humidity
    00:00 +22°C° 0 mm 3 mps 742 mmHg 43%
    01:00 +21°C° 0 mm 2 mps 742 mmHg 44%
    02:00 +21°C° 0 mm 2 mps 741 mmHg 45%
    03:00 +21°C° 0 mm 2 mps 742 mmHg 46%
    04:00 +21°C° 0 mm 2 mps 742 mmHg 46%
    05:00 +21°C° 0 mm 2 mps 742 mmHg 46%
    06:00 +24°C° 0 mm 3 mps 742 mmHg 41%
    07:00 +27°C° 0 mm 3 mps 742 mmHg 36%
    08:00 +29°C° 0 mm 4 mps 743 mmHg 32%
    09:00 +32°C° 0 mm 4 mps 743 mmHg 28%
    10:00 +34°C° 0 mm 4 mps 742 mmHg 25%
    11:00 +35°C° 0 mm 4 mps 742 mmHg 22%
    12:00 +36°C° 0 mm 4 mps 742 mmHg 21%
    13:00 +36°C° 0 mm 4 mps 742 mmHg 20%
    14:00 +37°C° 0 mm 4 mps 741 mmHg 19%
    15:00 +37°C° 0 mm 4 mps 741 mmHg 19%
    16:00 +36°C° 0 mm 4 mps 741 mmHg 20%
    17:00 +36°C° 0 mm 4 mps 741 mmHg 20%
    18:00 +33°C° 0 mm 4 mps 741 mmHg 24%
    19:00 +30°C° 0 mm 3 mps 741 mmHg 27%
    20:00 +28°C° 0 mm 2 mps 741 mmHg 31%
    21:00 +26°C° 0 mm 2 mps 741 mmHg 35%
    22:00 +25°C° 0 mm 2 mps 741 mmHg 40%
    23:00 +24°C° 0 mm 2 mps 740 mmHg 44%
    Show more